Flag for Germany Weather past 2 weeks in Dorsten, North Rhine-Westphalia, Germany

Now
80 °F

Overcast.


Feels Like: 80 °F
Forecast: 57 / 64 °F
Wind: 5 mph from Southwest

Location: Essen

Current Time: Jul 7, 2015 at 6:01:20 PM

Latest Report: Jul 7, 2015 at 5:00 PM


Visibility: 31 mi

Pressure: 29.75 "Hg

Humidity: 47%

Dew point: 58 °F

Location of DorstenLocation

Historic Weather in Dorsten — Graph

°F

Dorsten temperature yesterday

Maximum temperature yesterday: 75 °F (at 5:00 PM)
Minimum temperature yesterday: 58 °F (at 6:00 AM)
Average temperature yesterday: 67 °F

Past Weeks' High & Low Weather Summary

 TemperatureHumidityPressure
High96 °F (Jul 2, 4:00 PM)100% (Jun 22, 8:00 PM)30.24 "Hg (Jun 22, 8:00 PM)
Low48 °F (Jun 23, 5:00 AM)24% (Jul 1, 5:00 PM)29.71 "Hg (Jun 22, 9:00 PM)
Average70 °F64%30.08 "Hg
* Reported Jun 22 5:00 PM — Jul 7 5:00 PM, Dorsten, Weather by CustomWeather, © 2015

Note: Actual official high and low records may vary slightly from our data, if they occured in-between our weather recording intervals... More about our weather records

Advertising

Dorsten weather history for previous 24 hours

 ConditionsComfort  
Time TempWeatherWind HumidityBarometerVisibility
5:00 PM
Tue, Jul 7
80 °FOvercast.5 mph47%29.75 "Hg31 mi
4:00 PM84 °FOvercast.5 mph42%29.74 "Hg25 mi
3:00 PM84 °FOvercast.3 mph42%29.75 "Hg31 mi
2:00 PM84 °FOvercast.5 mph38%29.78 "Hg19 mi
1:00 PM85 °FOvercast.5 mph35%29.80 "Hg22 mi
12:00 PM84 °FOvercast.5 mph36%29.82 "Hg17 mi
11:00 AM80 °FOvercast.5 mph38%29.84 "Hg12 mi
9:00 AM74 °FPassing clouds.3 mph46%29.90 "Hg25 mi
8:00 AM71 °FSunny.3 mph54%29.91 "Hg28 mi
7:00 AM66 °FSunny.2 mph60%29.94 "Hg19 mi
6:00 AM61 °FSunny.2 mph72%29.96 "Hg34 mi
5:00 AM62 °FClear.2 mph68%29.98 "Hg37 mi
4:00 AM63 °FClear.1 mph64%29.99 "Hg37 mi
3:00 AM63 °FClear.2 mph66%30.01 "Hg37 mi
2:00 AM64 °FClear.1 mph63%30.03 "Hg40 mi
1:00 AM65 °FClear.1 mph61%30.05 "Hg43 mi
12:00 AM66 °FClear.1 mph59%30.06 "Hg43 mi
11:00 PM
Mon, Jul 6
67 °FClear.1 mph53%30.07 "Hg43 mi
10:00 PM69 °FClear.1 mph52%30.08 "Hg43 mi
9:00 PM72 °FSunny.1 mph46%30.08 "Hg43 mi
8:00 PM74 °FSunny.2 mph39%30.08 "Hg43 mi
7:00 PM75 °FSunny.5 mph41%30.10 "Hg43 mi
6:00 PM75 °FSunny.3 mph40%30.11 "Hg31 mi
Weather by CustomWeather, © 2015

See weather overviewHow to use our weather pages